Weather History for Salem, OR

Change the Weather History Date:

Tuesday, July 15, 2014

  Actual Average Record
Temperature  
Mean Temperature 79 °F 68 °F  
Max Temperature 96 °F 82 °F 108 °F (1941)
Min Temperature 62 °F 53 °F 41 °F (1982)
Degree Days  
Heating Degree Days 0 1  
Month to date heating degree days 0 20  
Since 1 June heating degree days 66 150  
Since 1 July heating degree days 0 20  
Cooling Degree Days 14 4  
Month to date cooling degree days 132 41  
Year to date cooling degree days 167 78  
Since 1 June cooling degree days 151 69  
Growing Degree Days 29 (Base 50)    
Moisture  
Dew Point 58 °F    
Average Humidity 55    
Maximum Humidity 78    
Minimum Humidity 31    
Precipitation  
Precipitation 0.00 in 0.01 in 0.84 in (1978)
Month to date precipitation 0.06 0.29  
Year to date precipitation 22.07 21.38  
Sea Level Pressure  
Sea Level Pressure 29.99 in    
Wind  
Wind Speed 7 mph (North)    
Max Wind Speed 17 mph    
Max Gust Speed 20 mph    
Visibility 10 miles    
Events      
T = Trace of Precipitation, MM = Missing Value Source: NWS Daily Summary

Daily Weather History Graph

Daily Weather History Graph

Search for Another Location

Airport:

Trip Planner

Search our weather history database for the weather conditions in past years. The results will help you decide how hot, cold, wet, or windy it might be!

Date:

Astronomy

Jul. 15, 2014 Rise Set
Actual Time 5:40 AM PDT 8:55 PM PDT
Civil Twilight 5:04 AM PDT 9:31 PM PDT
Nautical Twilight 4:17 AM PDT 10:17 PM PDT
Astronomical Twilight 3:20 AM PDT 11:14 PM PDT
Moon 10:52 PM PDT (7/15) 9:53 AM PDT (7/15)
Length of Visible Light 16h 26m
Length of Day
15h 15m
Waning Gibbous, 84% of the Moon is Illuminated
Jul 15
Waning Gibbous
Jul 18
Last Quarter
Jul 26
New
Aug 3
First Quarter
Aug 10
Full

Hourly Weather History & Observations

Time (PDT) Temp. Heat Index Dew Point Humidity Pressure Visibility Wind Dir Wind Speed Gust Speed Precip Events Conditions
12:56 AM 69.1 °F - 54.0 °F 58% 30.04 in 10.0 mi NNW 3.5 mph - N/A   Clear
1:56 AM 64.9 °F - 53.1 °F 65% 30.04 in 10.0 mi Calm Calm - N/A   Clear
2:56 AM 64.9 °F - 52.0 °F 63% 30.04 in 10.0 mi NNW 4.6 mph - N/A   Clear
3:56 AM 64.0 °F - 53.1 °F 67% 30.05 in 10.0 mi North 3.5 mph - N/A   Clear
4:56 AM 63.0 °F - 55.0 °F 75% 30.06 in 10.0 mi NW 5.8 mph - N/A   Clear
5:56 AM 62.1 °F - 55.9 °F 80% 30.06 in 10.0 mi NNW 5.8 mph - N/A   Clear
6:56 AM 64.0 °F - 57.0 °F 78% 30.06 in 10.0 mi North 4.6 mph - N/A   Clear
7:56 AM 66.9 °F - 57.9 °F 73% 30.07 in 10.0 mi Variable 4.6 mph - N/A   Clear
8:56 AM 70.0 °F - 57.9 °F 65% 30.06 in 10.0 mi North 4.6 mph - N/A   Clear
9:56 AM 73.0 °F - 57.9 °F 59% 30.05 in 10.0 mi Variable 5.8 mph - N/A   Clear
10:56 AM 77.0 °F - 59.0 °F 54% 30.03 in 10.0 mi North 9.2 mph - N/A   Clear
11:56 AM 81.0 °F 81.6 °F 60.1 °F 49% 30.01 in 10.0 mi North 8.1 mph - N/A   Clear
12:56 PM 84.0 °F 84.4 °F 61.0 °F 46% 30.00 in 10.0 mi North 11.5 mph - N/A   Clear
1:56 PM 90.0 °F 89.7 °F 60.1 °F 37% 29.98 in 10.0 mi NNE 11.5 mph - N/A   Clear
2:56 PM 91.9 °F 91.5 °F 60.1 °F 34% 29.95 in 10.0 mi NNE 12.7 mph - N/A   Clear
3:56 PM 93.0 °F 93.0 °F 61.0 °F 34% 29.93 in 10.0 mi NNE 11.5 mph - N/A   Clear
4:56 PM 95.0 °F 95.2 °F 61.0 °F 32% 29.91 in 10.0 mi NNE 12.7 mph - N/A   Clear
5:56 PM 95.0 °F 95.2 °F 61.0 °F 32% 29.89 in 10.0 mi NE 11.5 mph - N/A   Clear
6:56 PM 93.0 °F 92.7 °F 60.1 °F 33% 29.88 in 10.0 mi NNE 11.5 mph - N/A   Clear
7:56 PM 90.0 °F 88.8 °F 57.9 °F 34% 29.89 in 10.0 mi NNE 10.4 mph - N/A   Clear
8:56 PM 86.0 °F 85.4 °F 59.0 °F 40% 29.90 in 10.0 mi NNE 8.1 mph - N/A   Clear
10:56 PM 79.0 °F - 60.1 °F 52% 29.92 in 10.0 mi NW 5.8 mph - N/A   Clear
11:56 PM 75.0 °F - 59.0 °F 57% 29.93 in 10.0 mi NNW 4.6 mph - N/A   Clear